STARLINK-5997 (56327 NORAD) Tracking and Keplerian Element Data

This shows tracking and keplerian element data for the satellite.

Feedback or suggestion? Click here.




ElementValue
Catalog56327
NameSTARLINK-5997
Epoch Orbit179
Epoch Day126.91667824
Epoch Year2023
RAAN126.3819
Inclination97.6632
Eccentricity0.000158
Argument of Perigee95.7822
Mean Anonmoly121.3344
Mean Motion15.6819589
Decay Rate-0.00797862
L11 56327U 23058L 23126.91667824 -.00797862 00000+0 -78834-2 0 9990
L22 56327 97.6632 126.3819 0001580 95.7822 121.3344 15.68195890 1792



Live tracking and technical data element details for STARLINK-5997 (NORAD 56327). STARLINK-5997 can be tracked NOW for your location showing map with azimuth and elevation plus other details from your city location.







IsCatalogInMostPopularTable: catalog: 56327, numindb: 2
Update: records affected: 1



GetName: 56327 STARLINK-5997

Hit Count: updated at: Mon, 05 Jun 2023 00:09:04 GMT